Weather History for Dyersburg, TN

Change the Weather History Date:

Wednesday, November 21, 2012

  Actual Average Record
Temperature  
Mean Temperature 53 °F -  
Max Temperature 64 °F 55 °F 71 °F (2003)
Min Temperature 42 °F 39 °F 23 °F (2000)
Degree Days  
Heating Degree Days 12    
Growing Degree Days 3 (Base 50)    
Moisture  
Dew Point 41 °F    
Average Humidity 65    
Maximum Humidity 76    
Minimum Humidity 49    
Precipitation  
Precipitation 0.00 in - - ()
Sea Level Pressure  
Sea Level Pressure 30.23 in    
Wind  
Wind Speed 4 mph (North)    
Max Wind Speed 9 mph    
Max Gust Speed -    
Visibility 7 miles    
Events      
Averages and records for this station are not official NWS values.
T = Trace of Precipitation, MM = Missing Value Source: NWS Daily Summary

Daily Weather History Graph

Daily Weather History Graph

Search for Another Location

Airport:

Trip Planner

Search our weather history database for the weather conditions in past years. The results will help you decide how hot, cold, wet, or windy it might be!

Date:

Astronomy

Nov. 21, 2012 Rise Set
Actual Time 6:40 AM CST 4:46 PM CST
Civil Twilight 6:12 AM CST 5:14 PM CST
Nautical Twilight 5:41 AM CST 5:45 PM CST
Astronomical Twilight 5:11 AM CST 6:15 PM CST
Moon 12:52 PM CST (11/21) 12:11 AM CST (11/21)
Length of Visible Light 11h 01m
Length of Day
10h 05m
First Quarter, 62% of the Moon is Illuminated
Nov 21
First Quarter
Nov 28
Full
Dec 6
Last Quarter
Dec 13
New
Dec 19
First Quarter

Hourly Weather History & Observations

Time (CST) Temp. Windchill Dew Point Humidity Pressure Visibility Wind Dir Wind Speed Gust Speed Precip Events Conditions
12:15 AM 53.6 °F - 41.0 °F 62% 30.17 in 10.0 mi North 8.1 mph - N/A   Clear
12:55 AM 51.8 °F - 41.0 °F 67% 30.17 in 10.0 mi North 8.1 mph - N/A   Clear
1:15 AM 51.8 °F - 41.0 °F 67% 30.16 in 10.0 mi NNE 3.5 mph - N/A   Clear
1:35 AM 51.8 °F - 41.0 °F 67% 30.16 in 10.0 mi North 5.8 mph - N/A   Clear
1:55 AM 51.8 °F - 41.0 °F 67% 30.17 in 9.0 mi North 4.6 mph - N/A   Clear
2:15 AM 50.0 °F - 39.2 °F 66% 30.17 in 8.0 mi North 4.6 mph - N/A   Clear
2:55 AM 48.2 °F - 39.2 °F 71% 30.19 in 7.0 mi North 6.9 mph - N/A   Clear
3:16 AM 48.2 °F - 39.2 °F 71% 30.20 in 8.0 mi North 4.6 mph - N/A   Clear
3:35 AM 48.2 °F - 39.2 °F 71% 30.20 in 7.0 mi North 3.5 mph - N/A   Clear
3:55 AM 48.2 °F - 39.2 °F 71% 30.20 in 7.0 mi Calm Calm - N/A   Clear
4:35 AM 48.2 °F - 39.2 °F 71% 30.21 in 5.0 mi Calm Calm - N/A   Clear
4:55 AM 46.4 °F - 37.4 °F 71% 30.21 in 5.0 mi Calm Calm - N/A   Clear
5:16 AM 46.4 °F - 37.4 °F 71% 30.22 in 4.0 mi Calm Calm - N/A   Clear
5:35 AM 46.4 °F 44.3 °F 37.4 °F 71% 30.23 in 5.0 mi North 4.6 mph - N/A   Clear
5:55 AM 46.4 °F - 37.4 °F 71% 30.23 in 4.0 mi Calm Calm - N/A   Clear
6:35 AM 44.6 °F - 37.4 °F 76% 30.25 in 1.5 mi Calm Calm - N/A   Clear
6:55 AM 44.6 °F - 37.4 °F 76% 30.25 in 1.8 mi Calm Calm - N/A   Clear
7:15 AM 44.6 °F - 37.4 °F 76% 30.26 in 1.5 mi Calm Calm - N/A   Clear
7:35 AM 46.4 °F - 37.4 °F 71% 30.26 in 2.0 mi Calm Calm - N/A   Clear
8:15 AM 48.2 °F - 41.0 °F 76% 30.28 in 3.0 mi Calm Calm - N/A   Clear
8:35 AM 51.8 °F - 42.8 °F 71% 30.27 in 4.0 mi Calm Calm - N/A   Clear
8:55 AM 53.6 °F - 42.8 °F 67% 30.28 in 5.0 mi NNE 3.5 mph - N/A   Clear
9:16 AM 55.4 °F - 44.6 °F 67% 30.28 in 7.0 mi NE 3.5 mph - N/A   Clear
9:35 AM 55.4 °F - 44.6 °F 67% 30.29 in 9.0 mi NE 3.5 mph - N/A   Clear
9:55 AM 57.2 °F - 44.6 °F 63% 30.29 in 10.0 mi NNE 5.8 mph - N/A   Clear
10:35 AM 60.8 °F - 44.6 °F 55% 30.29 in 10.0 mi East 4.6 mph - N/A   Clear
10:55 AM 60.8 °F - 44.6 °F 55% 30.28 in 10.0 mi NNE 8.1 mph - N/A   Clear
11:35 AM 62.6 °F - 44.6 °F 52% 30.26 in 10.0 mi NNE 5.8 mph - N/A   Clear
11:55 AM 62.6 °F - 44.6 °F 52% 30.26 in 10.0 mi NE 9.2 mph - N/A   Clear
12:15 PM 62.6 °F - 44.6 °F 52% 30.26 in 10.0 mi North 4.6 mph - N/A   Clear
12:35 PM 64.4 °F - 44.6 °F 49% 30.24 in 10.0 mi North 8.1 mph - N/A   Clear
12:55 PM 64.4 °F - 44.6 °F 49% 30.24 in 10.0 mi North 5.8 mph - N/A   Clear
1:35 PM 64.4 °F - 46.4 °F 52% 30.23 in 10.0 mi North 3.5 mph - N/A   Clear
1:55 PM 64.4 °F - 46.4 °F 52% 30.22 in 10.0 mi North 6.9 mph - N/A   Clear
2:15 PM 64.4 °F - 46.4 °F 52% 30.22 in 10.0 mi Calm Calm - N/A   Clear
2:35 PM 64.4 °F - 44.6 °F 49% 30.22 in 10.0 mi WNW 3.5 mph - N/A   Clear
2:55 PM 64.4 °F - 46.4 °F 52% 30.21 in 10.0 mi North 3.5 mph - N/A   Clear
3:15 PM 64.4 °F - 46.4 °F 52% 30.21 in 10.0 mi Calm Calm - N/A   Clear
3:35 PM 64.4 °F - 44.6 °F 49% 30.21 in 10.0 mi North 4.6 mph - N/A   Clear
3:55 PM 62.6 °F - 46.4 °F 55% 30.21 in 10.0 mi North 6.9 mph - N/A   Clear
4:15 PM 62.6 °F - 44.6 °F 52% 30.21 in 10.0 mi North 5.8 mph - N/A   Clear
4:36 PM 60.8 °F - 44.6 °F 55% 30.21 in 10.0 mi North 4.6 mph - N/A   Clear
4:55 PM 57.2 °F - 42.8 °F 59% 30.21 in 10.0 mi North 5.8 mph - N/A   Clear
5:15 PM 59.0 °F - 42.8 °F 55% 30.22 in 10.0 mi North 4.6 mph - N/A   Clear
5:55 PM 55.4 °F - 42.8 °F 63% 30.22 in 10.0 mi Calm Calm - N/A   Clear
6:15 PM 55.4 °F - 42.8 °F 63% 30.22 in 10.0 mi Calm Calm - N/A   Clear
6:35 PM 53.6 °F - 41.0 °F 62% 30.23 in 10.0 mi Calm Calm - N/A   Clear
7:15 PM 51.8 °F - 41.0 °F 67% 30.23 in 10.0 mi Calm Calm - N/A   Clear
7:35 PM 50.0 °F - 39.2 °F 66% 30.23 in 8.0 mi Calm Calm - N/A   Clear
7:56 PM 51.8 °F - 41.0 °F 67% 30.23 in 10.0 mi Calm Calm - N/A   Clear
8:15 PM 48.2 °F - 39.2 °F 71% 30.22 in 7.0 mi Calm Calm - N/A   Clear
8:35 PM 48.2 °F - 39.2 °F 71% 30.22 in 6.0 mi Calm Calm - N/A   Clear
8:56 PM 46.4 °F - 37.4 °F 71% 30.21 in 7.0 mi Calm Calm - N/A   Clear
9:15 PM 46.4 °F - 39.2 °F 76% 30.21 in 7.0 mi Calm Calm - N/A   Clear
9:35 PM 46.4 °F - 37.4 °F 71% 30.22 in 5.0 mi Calm Calm - N/A   Clear
10:15 PM 46.4 °F - 37.4 °F 71% 30.22 in 5.0 mi Calm Calm - N/A   Clear
10:35 PM 46.4 °F - 37.4 °F 71% 30.22 in 3.0 mi Calm Calm - N/A   Clear
10:55 PM 44.6 °F - 37.4 °F 76% 30.22 in 2.5 mi Calm Calm - N/A   Clear
11:15 PM 44.6 °F - 37.4 °F 76% 30.22 in 2.5 mi Calm Calm - N/A   Clear
11:35 PM 42.8 °F - 35.6 °F 76% 30.22 in 4.0 mi Calm Calm - N/A   Clear
11:55 PM 44.6 °F - 37.4 °F 76% 30.22 in 2.0 mi Calm Calm - N/A   Clear